Regional Weather Roundup
Issued by NWS

Home | Current Version | Previous Version | Text Only | Print | Product List | Glossary On
Versions: 1 2 3 4 5 6 7 8 9 10 11 12 13 14 15 16 17 18 19 20 21 22 23 24 25 26 27 28 29 30 31 32 33 34 35 36 37 38 39 40 41 42 43 44 45 46 47 48 49 50
000
ASUS44 KBMX 111410
RWRAL

ALABAMA REGIONAL WEATHER ROUNDUP
NATIONAL WEATHER SERVICE BIRMINGHAM AL
800 AM CST SUN DEC 11 2016

NOTE: "FAIR" INDICATES FEW OR NO CLOUDS BELOW 12,000 FEET
WITH NO SIGNIFICANT WEATHER AND/OR OBSTRUCTIONS TO VISIBILITY.

THE REMARK "TC" DENOTES TEMPERATURE IN DEGREES CELSIUS.

ALZ001>011-014-016>018-020-111500-
NORTH ALABAMA

CITY           SKY/WX    TMP DP  RH WIND       PRES   REMARKS
MUSCLE SHOALS  CLOUDY    33  21  61 SE7       30.30F WCI  27
HUNTSVILLE     MOSUNNY   34  25  69 SE7       30.32F WCI  28
DECATUR        SUNNY     35  22  58 SE6       30.33F WCI  30
HALEYVILLE     FAIR      36  19  50 SE12      30.31F WCI  28
GADSDEN        CLOUDY    29  26  89 CALM      30.40R
$$

ALZ012-013-022-023-030>036-040>044-111500-
WEST CENTRAL ALABAMA

CITY           SKY/WX    TMP DP  RH WIND       PRES   REMARKS
TUSCALOOSA     CLOUDY    32  28  85 N5        30.36R WCI  27
$$

ALZ015-024>027-033>036-040>044-111500-
CENTRAL ALABAMA

CITY           SKY/WX    TMP DP  RH WIND       PRES   REMARKS
BIRMINGHAM     SUNNY     39  21  48 VRB3      30.37R
MONTGOMERY     SUNNY     38  25  59 NE6       30.35S WCI  33
SHELBY CO ARPT CLOUDY    36  25  64 NE3       30.34S
MAXWELL AFB    CLOUDY    37  29  73 NE6       30.34R WCI  32
GREENVILLE     FAIR      41  30  65 SE3       30.31S
$$

ALZ019-021-028-029-037-038-045>048-111500-
EAST CENTRAL ALABAMA

CITY           SKY/WX    TMP DP  RH WIND       PRES   REMARKS
ANNISTON       SUNNY     37  21  52 NE9       30.37S WCI  30
ALEXANDER CITY CLOUDY    37  28  68 CALM      30.35F
AUBURN         CLOUDY    40  26  57 E7        30.36R
$$

ALZ051>064-111500-
SOUTHWEST ALABAMA

CITY           SKY/WX    TMP DP  RH WIND       PRES   REMARKS
MOBILE         SUNNY     42  29  59 E6        30.29S
BROOKLEY FIELD SUNNY     44  35  70 N5        30.31S
EVERGREEN        N/A     34  30  85 CALM      30.33S
$$

ALZ049-050-065>069-111500-
SOUTHEAST ALABAMA

CITY           SKY/WX    TMP DP  RH WIND       PRES   REMARKS
DOTHAN         PTSUNNY   44  35  70 E7        30.37S
OZARK          CLOUDY    44  33  65 E9        30.32F
TROY           PTSUNNY   41  32  70 E6        30.33F
EUFAULA        PTSUNNY   44  32  62 CALM      30.35S
$$



USA.gov is the U.S. government's official web portal to all federal, state and local government web resources and services.